« Back
NWS Peachtree City, Ga » Text Product » GA Regional Weather Roundup


Printer-friendly Version
Current Version              Previous Versions:   1  2  3  4  5  6  7  8  9  

Regional Weather Roundup

501
ASUS42 KFFC 070403
RWRGA
WEATHER ROUNDUP FOR GEORGIA
NATIONAL WEATHER SERVICE PEACHTREE CITY GA
1100 PM EST SAT FEB 06 2016

NOTE: "FAIR" INDICATES FEW OR NO CLOUDS BELOW 12,000 FEET WITH NO
SIGNIFICANT WEATHER AND/OR OBSTRUCTIONS TO VISIBILITY.

* = USE WITH CAUTION. THE STATIONS MARKED WITH AN ASTERISK MAY NOT
REPORT WEATHER SUCH AS PRECIPITATION, FOG, OR THUNDER AND ARE NOT
QUALITY CONTROLLED BY NWS.

THE REMARK "TC" DENOTES TEMPERATURE READING IN DEGREES CELSIUS.

GAZ001>058-070500-
NORTH GEORGIA

CITY           SKY/WX    TMP DP  RH WIND       PRES   REMARKS
ATLANTA        PTCLDY    40  20  44 NW7       30.21S
ATHENS         CLEAR     36  23  59 N5        30.21S WCI  32
CHAMBLEE       CLEAR     34  24  67 CALM      30.22R
PEACHTREE CITY CLEAR     30  25  81 CALM      30.22S
ROME             N/A    N/A N/A N/A MISG      30.25F
WEST ATLANTA   CLEAR     34  24  67 CALM      30.22S
GAINESVILLE    CLEAR     36  24  62 CALM      30.22S
CARTERSVILLE   CLEAR     33  22  63 CALM      30.25S


CITY           SKY/WX    TMP DP  RH WIND       PRES   REMARKS
MARIETTA       CLEAR     39  19  45 N3        30.21S
KENNESAW*      CLEAR     34  21  60 CALM      30.23F
BLAIRSVILLE*     N/A     28   6  40 CALM      30.22S
$$

GAZ059>098-102>109-070500-
CENTRAL GEORGIA

CITY           SKY/WX    TMP DP  RH WIND       PRES   REMARKS
AUGUSTA-BUSH   CLOUDY    42  39  89 NE3       30.18F
AUGUSTA-DANIEL LGT RAIN  44  32  62 N5        30.18F
COLUMBUS       CLEAR     42  19  39 N7        30.21F
MACON          PTCLDY    34  30  85 W6        30.19F WCI  29
ROBINS AFB     PTCLDY    37  29  72 NW5       30.18F WCI  34


CITY           SKY/WX    TMP DP  RH WIND       PRES   REMARKS
LAGRANGE*      CLEAR     35  31  87 N3        30.22F
SYLVANIA*      CLOUDY    43  39  87 NE7       30.16F
MILLEDGEVILLE* PTCLDY    37  32  81 CALM      30.19F
$$

GAZ099>101-110>166-070500-
SOUTH GEORGIA

CITY           SKY/WX    TMP DP  RH WIND       PRES   REMARKS
SAVANNAH       RAIN      41  38  89 N15       30.13F
VALDOSTA       CLOUDY    42  39  89 N8        30.16S
ALMA           LGT RAIN  40  39  97 N8        30.14F WCI  34
ST SIMONS      LGT RAIN  42  41  96 N16G22    30.08F
FT STEWART     RAIN      41  38  90 N12G20    30.10F
ALBANY         CLEAR     37  32  82 NW5       30.22R WCI  33
HUNTER AFB     LGT RAIN  41  40  98 N12       30.09F
MOODY AFB      CLOUDY    41  37  88 N8        30.14F
BRUNSWICK      DRIZZLE   41  41 100 N9G16     30.09F


CITY           SKY/WX    TMP DP  RH WIND       PRES   REMARKS
BAINBRIDGE*    CLOUDY    43  34  70 N3        30.20F
MOULTRIE*      CLEAR     43  34  70 N3        30.18S
VIDALIA*       CLOUDY    41  36  81 N7        30.16F
WAYCROSS*      DRIZZLE   44  43  98 N10       30.13F
DOUGLAS*       CLOUDY    43  37  81 NE9       30.16F
$$




USA.gov is the U.S. government's official web portal to all federal, state and local government web resources and services.